SCP
-0 -0 -0 -0 -0 -0 -0 0 0 0 0 0 0 0 0 0 0 0 0 0 0 0
-0 -0 -0 -0 -0 -0 -0 -0 -0 0 0 0 0 0 0 0 0 0 0 -0 0 0
-0 -0 -0 -0 -0 -0 -0 -0 -0 -0 -0 -0 -0 0 0 0 0 0 0 0 0 0
-0 -0 -0 -0 -0 -0 -0 -0 -0 -0 -0 -0 -0 0 0 0 0 0 0 0 0 0
-0 -0 -0 -0 0 -0 -0 -0 -0 0 0 0 0 0 0 0 0 0 0 0 0 0
0 -0 -0 0 -0 -0 -0 -0 -0 -0 -0 0 0 0 0 0 0 0 0 0 0 0
0 0 0 0 0 0 0 0 0 0 0 0 0 0 0 0 0 0 0 0 0 0
0 0 0 0 0 0 0 0 0 0 0 0 0 0 0 0 0 0 0 0 0 0
0 0 0 0 0 0 0 0 0 0 0 0 0 0 0 0 0 0 0 0 0 0
0 0 0 0 0 0 0 0 0 0 0 0 0 0 0 0 0 0 0 0 0 0
1 0 0 0 0 0 0 0 0 0 0 0 0 0 0 0 0 0 0 0 0 0
1 1 0 0 0 0 0 0 0 0 0 0 0 0 0 0 0 0 0 0 0 0
0 1 1 0 0 0 0 0 0 0 0 0 0 0 0 0 0 0 0 0 0 0
0 0 0 0 0 0 0 0 0 0 0 0 0 0 0 0 0 0 0 0 0 0
Wind_Speed_500mb
68 69 81 82 97 108 108 114 111 104 100 88 88 83 78 77 78 64 69 66 68 64
71 74 77 79 89 99 108 105 104 108 107 109 96 100 92 96 96 85 75 72 73 72
79 78 75 77 78 90 98 100 107 107 102 112 103 94 92 94 100 94 86 87 87 84
80 80 86 84 83 83 81 95 105 109 103 99 104 103 104 100 94 103 107 102 101 96
71 80 86 82 80 81 82 75 87 107 101 104 106 104 109 109 105 101 108 110 108 111
60 71 83 80 82 85 85 82 78 92 103 109 109 110 115 116 112 111 112 108 102 104
67 68 67 78 83 83 87 82 80 85 102 108 114 116 110 118 119 119 121 122 115 106
70 71 69 69 76 77 84 91 90 91 94 96 101 104 99 99 100 100 102 103 107 107
72 73 82 83 81 79 84 89 90 95 95 96 105 106 103 102 99 99 97 99 99 99
73 74 81 82 82 91 93 91 97 100 96 104 103 105 106 109 105 101 97 95 94 93
68 75 76 76 83 88 86 86 89 93 93 88 92 93 91 93 93 96 104 103 98 92
66 69 71 75 81 81 79 79 82 81 79 84 90 92 95 88 89 89 92 97 99 99
30 70 71 74 76 75 74 74 71 76 79 82 85 87 85 81 82 83 84 89 94 100
33 35 62 66 66 64 69 72 73 75 77 76 75 78 83 75 72 74 83 88 79 71
Wind_Direction_500mb
206 212 212 212 212 207 209 209 209 214 218 229 226 227 224 227 233 234 235 241 238 239
209 210 213 219 219 219 219 217 219 221 224 225 228 229 230 234 234 235 242 239 243 245
210 209 216 218 223 225 224 225 222 223 226 224 230 228 230 236 237 238 244 245 246 255
213 215 212 217 223 224 227 227 226 227 228 231 230 234 237 241 244 241 242 247 246 252
217 217 214 220 221 223 229 228 228 227 229 235 239 238 236 243 246 243 245 248 250 253
229 219 218 220 225 226 229 234 234 228 224 228 232 238 241 244 246 246 245 245 245 249
237 236 230 221 224 228 226 231 233 229 228 229 236 241 244 244 246 248 249 249 246 249
230 236 238 234 230 232 228 230 231 233 235 233 233 234 237 240 240 243 246 248 250 250
232 232 234 233 226 228 229 231 227 230 230 233 231 232 235 235 237 240 243 245 248 250
234 236 236 234 232 235 233 230 231 231 232 233 236 242 241 242 241 243 245 247 250 252
239 238 240 238 236 236 234 232 235 236 238 238 242 242 243 244 244 245 249 251 252 254
246 241 241 240 241 240 236 237 238 240 240 241 246 244 246 246 249 251 248 251 254 256
266 248 245 240 238 239 239 239 238 236 236 238 239 243 246 246 244 246 246 250 252 252
285 243 234 236 232 233 229 229 231 236 240 242 242 244 246 245 243 244 246 246 246 250
Wind_Speed_850mb
68 69 81 82 97 108 108 114 111 104 100 88 88 83 78 77 78 64 69 66 68 64
71 74 77 79 89 99 108 105 104 108 107 109 96 100 92 96 96 85 75 72 73 72
79 78 75 77 78 90 98 100 107 107 102 112 103 94 92 94 100 94 86 87 87 84
80 80 86 84 83 83 81 95 105 109 103 99 104 103 104 100 94 103 107 102 101 96
71 80 86 82 80 81 82 75 87 107 101 104 106 104 109 109 105 101 108 110 108 111
60 71 83 80 82 85 85 82 78 92 103 109 109 110 115 116 112 111 112 108 102 104
67 68 67 78 83 83 87 82 80 85 102 108 114 116 110 118 119 119 121 122 115 106
70 71 69 69 76 77 84 91 90 91 94 96 101 104 99 99 100 100 102 103 107 107
72 73 82 83 81 79 84 89 90 95 95 96 105 106 103 102 99 99 97 99 99 99
73 74 81 82 82 91 93 91 97 100 96 104 103 105 106 109 105 101 97 95 94 93
68 75 76 76 83 88 86 86 89 93 93 88 92 93 91 93 93 96 104 103 98 92
66 69 71 75 81 81 79 79 82 81 79 84 90 92 95 88 89 89 92 97 99 99
30 70 71 74 76 75 74 74 71 76 79 82 85 87 85 81 82 83 84 89 94 100
33 35 62 66 66 64 69 72 73 75 77 76 75 78 83 75 72 74 83 88 79 71
Wind_Direction_850mb
206 212 212 212 212 207 209 209 209 214 218 229 226 227 224 227 233 234 235 241 238 239
209 210 213 219 219 219 219 217 219 221 224 225 228 229 230 234 234 235 242 239 243 245
210 209 216 218 223 225 224 225 222 223 226 224 230 228 230 236 237 238 244 245 246 255
213 215 212 217 223 224 227 227 226 227 228 231 230 234 237 241 244 241 242 247 246 252
217 217 214 220 221 223 229 228 228 227 229 235 239 238 236 243 246 243 245 248 250 253
229 219 218 220 225 226 229 234 234 228 224 228 232 238 241 244 246 246 245 245 245 249
237 236 230 221 224 228 226 231 233 229 228 229 236 241 244 244 246 248 249 249 246 249
230 236 238 234 230 232 228 230 231 233 235 233 233 234 237 240 240 243 246 248 250 250
232 232 234 233 226 228 229 231 227 230 230 233 231 232 235 235 237 240 243 245 248 250
234 236 236 234 232 235 233 230 231 231 232 233 236 242 241 242 241 243 245 247 250 252
239 238 240 238 236 236 234 232 235 236 238 238 242 242 243 244 244 245 249 251 252 254
246 241 241 240 241 240 236 237 238 240 240 241 246 244 246 246 249 251 248 251 254 256
266 248 245 240 238 239 239 239 238 236 236 238 239 243 246 246 244 246 246 250 252 252
285 243 234 236 232 233 229 229 231 236 240 242 242 244 246 245 243 244 246 246 246 250